Tiempo atmosférico en la estación meteorológica de Tejeda, Cruz de Tejeda, Las Palmas (1514 m.)



Fecha
DESCASC
Temp. máxima en grados centígrados (hora)
DESCASC
Temp. mínima en grados centígrados (hora)
DESCASC
Temp. media en grados centígrados
DESCASC
Racha de viento máxima en m/sg (hora)
DESCASC
Velocidad máxima media en intervalos de 10 minutos(hora)
DESCASC
Precipitaciones diarias en mm
DESCASC
Precipitaciones de 00:00 a 06:00 en mm
DESCASC
Precipitaciones de 06:00 a 12:00 en mm
DESCASC
Precipitaciones de 12:00 a 18:00 en mm
DESCASC
Precipitaciones de 18:00 a 24:00 en mm
DESCASC
22-08-2019 32.5 (18:50) 17.1 (00:00) 24.8 11.39 (04:20) 7.78 (04:30) 0 0 0 0 0
21-08-2019 20.8 (14:40) 13.4 (01:30) 17.1 14.17 (02:20) 8.89 (06:00) 0 0 0 0 0
20-08-2019 23.3 (00:00) 13.9 (22:20) 18.6 13.33 (10:20) 6.67 (23:50) 0 0 0 0 0
19-08-2019 30.3 (15:30) 20.7 (06:20) 25.5 11.11 (00:10) 5.56 (10:40) 0 0 0 0 0
18-08-2019 28.3 (13:30) 22.1 (00:00) 25.2 12.5 (04:00) 9.17 (04:00) 0 0 0 0 0
17-08-2019 30 (16:20) 24.1 (00:00) 27.1 12.22 (12:20) 7.5 (05:40) 0 0 0 0 0
16-08-2019 31.2 (13:40) 22.3 (00:00) 26.8 10.56 (12:50) 6.39 (07:50) 0 0 0 0 0
15-08-2019 31.1 (16:30) 16.6 (00:00) 23.9 5.83 (15:00) 2.78 (01:30) 0 0 0 0 0
14-08-2019 22 (13:10) 14.7 (00:00) 18.3 6.67 (12:50) 4.72 (05:40) 0 0 0 0 0
13-08-2019 21.7 (12:40) 16 (00:00) 18.9 16.11 (00:20) 10.28 (00:10) 0 0 0 0 0
12-08-2019 20.2 (16:20) 13.8 (00:00) 17 15.56 (21:10) 9.17 (20:50) 0 0 0 0 0
11-08-2019 26.4 (14:20) 14.6 (00:00) 20.5 14.17 (23:30) 10 (23:10) 0 0 0 0 0
10-08-2019 26.5 (18:30) 18.9 (00:00) 22.7 8.61 (23:40) 3.33 (02:00) 0 0 0 0 0
09-08-2019 30.7 (13:30) 22.7 (00:00) 26.7 6.94 (14:40) 3.89 (03:20) 0 0 0 0 0
08-08-2019 28.6 (13:40) 23.9 (00:00) 26.3 8.33 (15:10) 5 (15:10) 0 0 0 0 0
07-08-2019 27.1 (18:10) 15 (00:00) 21.1 8.61 (00:50) 5.56 (01:20) 0 0 0 0 0
06-08-2019 21.5 (14:30) 10.8 (00:00) 16.2 13.06 (00:20) 8.06 (00:30) 0 0 0 0 0
05-08-2019 18.2 (14:10) 9.7 (00:00) 14 14.44 (21:30) 9.44 (22:30) 0 0 0 0 0
04-08-2019 19 (13:20) 10.1 (00:00) 14.6 7.78 (00:40) 5.83 (01:10) 0 0 0 0 0
03-08-2019 22.9 (15:20) 14.5 (00:00) 18.7 8.89 (04:50) 6.39 (07:40) 0 0 0 0 0
02-08-2019 20.4 (17:20) 15.3 (00:00) 17.8 8.61 (22:50) 6.11 (23:40) 0 0 0 0 0
01-08-2019 22.1 (17:40) 14.7 (00:00) 18.4 11.67 (01:20) 7.5 (04:10) 0 0 0 0 0
31-07-2019 18.9 (16:00) 8.9 (00:00) 13.9 13.33 (00:20) 8.06 (22:30) 0 0 0 0 0
30-07-2019 18 (17:10) 9.1 (00:00) 13.6 17.78 (07:30) 10.28 (02:10) 6.2 4.4 1.6 0.2 0
29-07-2019 20 (13:40) 10.7 (00:00) 15.3 16.94 (23:30) 10 (23:00) 0.8 0 0 0 0.8
28-07-2019 24.9 (17:10) 15.5 (00:00) 20.2 10.83 (04:50) 6.94 (04:00) 0 0 0 0 0
27-07-2019 26.2 (14:40) 18.9 (00:00) 22.6 7.78 (23:20) 5.56 (23:50) 0 0 0 0 0
26-07-2019 28.7 (18:50) 17 (00:00) 22.9 8.61 (00:20) 5.56 (01:10) 0 0 0 0 0

Gráficas

Temp. máximas Temp. mínimas Temp. medias Precipitaciones Rachas de viento máximas Velocidades máximas media en intervalos de 10 minutos

Datos horarios

Fecha y hora oficial Temperatura (ºC) Velocidad del viento (km/h) Dirección del viento Racha (km/h) Dirección de racha Precipitación (mm) Presión (hPa) Tendencia (hPa) Humedad (%)
2019-08-24 23:00:00 23.5 6 Nordeste 26 Este 0 -- -- 31
2019-08-24 22:00:00 24.7 9 Este 24 Nordeste 0 -- -- 29
2019-08-24 21:00:00 24.1 4 Nordeste 24 Nordeste 0 -- -- 30
2019-08-24 20:00:00 24.6 8 Este 31 Sudeste 0 -- -- 29
2019-08-24 19:00:00 26.7 14 Este 37 Sudeste 0 -- -- 25
2019-08-24 18:00:00 28 13 Este 36 Este 0 -- -- 21
2019-08-24 17:00:00 28 10 Este 27 Sudeste 0 -- -- 21
2019-08-24 16:00:00 28.2 11 Este 43 Sudeste 0 -- -- 25
2019-08-24 15:00:00 29.8 14 Este 44 Este 0 -- -- 22
2019-08-24 14:00:00 30.7 19 Este 38 Este 0 -- -- 19
2019-08-24 13:00:00 30 18 Este 39 Sudeste 0 -- -- 20
2019-08-24 12:00:00 29.1 14 Este 36 Este 0 -- -- 19
2019-08-24 11:00:00 28.4 12 Este 31 Este 0 -- -- 20
2019-08-24 10:00:00 27.3 10 Este 30 Este 0 -- -- 21
2019-08-24 09:00:00 25.8 8 Este 37 Nordeste 0 -- -- 22
2019-08-24 08:00:00 24 15 Este 24 Nordeste 0 -- -- 21
2019-08-24 07:00:00 23.4 5 Este 28 Nordeste 0 -- -- 23
2019-08-24 06:00:00 22.4 7 Nordeste 26 Nordeste 0 -- -- 22
2019-08-24 05:00:00 24.4 14 Este 28 Este 0 -- -- 21
2019-08-24 04:00:00 24.1 10 Nordeste 23 Nordeste 0 -- -- 20
2019-08-24 03:00:00 21.6 4 Este 22 Nordeste 0 -- -- 21
2019-08-24 02:00:00 26.7 9 Este 26 Este 0 -- -- 18
2019-08-24 01:00:00 27.1 14 Este 23 Este 0 -- -- 18
2019-08-24 00:00:00 24.8 9 Este 22 Nordeste 0 -- -- 20
2019-08-23 23:00:00 27.3 17 Nordeste 23 Nordeste 0 -- -- 17
2019-08-23 22:00:00 27.5 12 Este 18 Nordeste 0 -- -- 17
2019-08-23 21:00:00 28.2 13 Nordeste 19 Nordeste 0 -- -- 16
2019-08-23 20:00:00 28 11 Nordeste 20 Nordeste 0 -- -- 17
2019-08-23 19:00:00 28.5 14 Nordeste 19 Nordeste 0 -- -- 18
2019-08-23 18:00:00 28.4 3 Nordeste 21 Nordeste 0 -- -- 20
2019-08-23 17:00:00 28.1 8 Este 26 Este 0 -- -- 19
2019-08-23 16:00:00 27.8 5 Nordeste 23 Nordeste 0 -- -- 22
2019-08-23 15:00:00 29.6 8 Este 29 Nordeste 0 -- -- 18
2019-08-23 14:00:00 27.5 13 Este 32 Este 0 -- -- 19
2019-08-23 13:00:00 27.9 9 Este 30 Este 0 -- -- 15
2019-08-23 12:00:00 27.6 7 Este 28 Nordeste 0 -- -- 15
2019-08-23 11:00:00 26.2 9 Este 30 Este 0 -- -- 16
2019-08-23 10:00:00 24.4 6 Este 31 Este 0 -- -- 19
2019-08-23 09:00:00 23.6 12 Este 33 Nordeste 0 -- -- 19
2019-08-23 08:00:00 23.9 24 Este 33 Este 0 -- -- 17
2019-08-23 07:00:00 23 8 Este 27 Este 0 -- -- 18
2019-08-23 06:00:00 22.6 4 Este 17 Nordeste 0 -- -- 18
2019-08-23 05:00:00 23 4 Este 15 Nordeste 0 -- -- 17
2019-08-23 04:00:00 22.1 5 Este 17 Este 0 -- -- 17
2019-08-23 03:00:00 22.1 5 Este 22 Nordeste 0 -- -- 15
2019-08-23 02:00:00 23 8 Nordeste 17 Nordeste 0 -- -- 16
2019-08-23 01:00:00 25.4 9 Nordeste 21 Nordeste 0 -- -- 20
2019-08-23 00:00:00 23.2 6 Nordeste 18 Este 0 -- -- 17
2019-08-22 23:00:00 26.2 5 Este 17 Nordeste 0 -- -- 19
2019-08-22 22:00:00 21.7 5 Este 12 Nordeste 0 -- -- 13
2019-08-22 21:00:00 24.1 5 Este 9 Este 0 -- -- 23
2019-08-22 20:00:00 28.2 0 Calma 6 Sudoeste 0 -- -- 19
2019-08-22 19:00:00 31.2 3 Este 9 Nordeste 0 -- -- 16
2019-08-22 18:00:00 30.7 4 Este 10 Este 0 -- -- 16
2019-08-22 17:00:00 30.1 4 Este 17 Este 0 -- -- 16
2019-08-22 16:00:00 28.9 8 Este 17 Nordeste 0 -- -- 16
2019-08-22 15:00:00 27.6 5 Este 15 Este 0 -- -- 15
2019-08-22 14:00:00 25.9 5 Este 18 Nordeste 0 -- -- 13
2019-08-22 13:00:00 23.6 5 Este 18 Este 0 -- -- 20
2019-08-22 12:00:00 24 4 Este 20 Nordeste 0 -- -- 12
2019-08-22 11:00:00 23.2 4 Este 16 Este 0 -- -- 9
2019-08-22 10:00:00 21.8 4 Este 28 Nordeste 0 -- -- 8
2019-08-22 09:00:00 20.9 4 Nordeste 27 Nordeste 0 -- -- 8
2019-08-22 08:00:00 19.4 17 Este 32 Nordeste 0 -- -- 8
2019-08-22 07:00:00 19.6 19 Nordeste 34 Nordeste 0 -- -- 7
2019-08-22 06:00:00 19.2 24 Nordeste 32 Nordeste 0 -- -- 13
2019-08-22 05:00:00 18.5 20 Este 41 Nordeste 0 -- -- 23
2019-08-22 04:00:00 17.9 22 Este 36 Nordeste 0 -- -- 26
2019-08-22 03:00:00 18.2 24 Nordeste 36 Nordeste 0 -- -- 37
2019-08-22 02:00:00 17.8 17 Este 35 Nordeste 0 -- -- 44
2019-08-22 01:00:00 18.4 21 Nordeste 35 Nordeste 0 -- -- 45
2019-08-22 00:00:00 17.1 13 Este 32 Nordeste 0 -- -- 44
2019-08-21 23:00:00 16.1 13 Este 33 Nordeste 0 -- -- 50
2019-08-21 22:00:00 15.9 10 Este 31 Este 0 -- -- 65
2019-08-21 21:00:00 16.6 6 Este 35 Nordeste 0 -- -- 65
2019-08-21 20:00:00 16.9 5 Este 30 Nordeste 0 -- -- 65
2019-08-21 19:00:00 18.4 5 Este 31 Este 0 -- -- 56
2019-08-21 18:00:00 19.8 8 Este 31 Nordeste 0 -- -- 51
2019-08-21 17:00:00 20.4 5 Este 30 Nordeste 0 -- -- 51
2019-08-21 16:00:00 20.5 7 Este 36 Nordeste 0 -- -- 49
2019-08-21 15:00:00 20.1 9 Este 38 Este 0 -- -- 54
2019-08-21 14:00:00 20.2 11 Este 42 Nordeste 0 -- -- 57
2019-08-21 13:00:00 20.2 12 Este 38 Este 0 -- -- 53
2019-08-21 12:00:00 19.5 9 Este 46 Nordeste 0 -- -- 52
2019-08-21 11:00:00 19.2 14 Este 40 Nordeste 0 -- -- 48
2019-08-21 10:00:00 18 17 Este 42 Nordeste 0 -- -- 34
2019-08-21 09:00:00 16.6 19 Este 41 Nordeste 0 -- -- 33
2019-08-21 08:00:00 15.5 23 Nordeste 45 Este 0 -- -- 34
2019-08-21 07:00:00 15.8 27 Este 47 Nordeste 0 -- -- 27
2019-08-21 06:00:00 15.5 32 Nordeste 46 Este 0 -- -- 49
2019-08-21 05:00:00 14.7 29 Nordeste 51 Este 0 -- -- 63
2019-08-21 04:00:00 14.4 27 Nordeste 48 Nordeste 0 -- -- 79
2019-08-21 03:00:00 13.7 27 Nordeste 51 Nordeste 0 -- -- 84
2019-08-21 02:00:00 13.5 23 Este 49 Nordeste 0 -- -- 85
2019-08-21 01:00:00 13.7 17 Este 38 Nordeste 0 -- -- 84
2019-08-21 00:00:00 14.3 19 Este 42 Este 0 -- -- 77
2019-08-20 23:00:00 15.3 12 Este 35 Nordeste 0 -- -- 72
2019-08-20 22:00:00 14.4 19 Nordeste 39 Nordeste 0 -- -- 80
2019-08-20 21:00:00 15.4 23 Nordeste 46 Sudeste 0 -- -- 70
2019-08-20 20:00:00 17.3 12 Este 42 Este 0 -- -- 44
2019-08-20 19:00:00 19.8 17 Este 39 Este 0 -- -- 27
2019-08-20 18:00:00 21.3 14 Este 40 Este 0 -- -- 28
2019-08-20 17:00:00 20.5 17 Este 40 Sudeste 0 -- -- 33
2019-08-20 16:00:00 20.6 10 Este 44 Sudeste 0 -- -- 31
2019-08-20 15:00:00 20.6 10 Este 36 Sudeste 0 -- -- 38
2019-08-20 14:00:00 20.4 12 Este 44 Sudeste 0 -- -- 40
2019-08-20 13:00:00 20.4 13 Este 40 Sudeste 0 -- -- 43
2019-08-20 12:00:00 20.4 8 Este 45 Sudeste 0 -- -- 32
2019-08-20 11:00:00 20.6 15 Este 48 Este 0 -- -- 27
2019-08-20 10:00:00 20.1 18 Este 47 Este 0 -- -- 25
2019-08-20 09:00:00 19.8 13 Este 41 Sudeste 0 -- -- 22
2019-08-20 08:00:00 18.8 10 Este 36 Este 0 -- -- 18
2019-08-20 07:00:00 18.2 8 Este 26 Este 0 -- -- 12
2019-08-20 06:00:00 18.8 3 Este 33 Sudeste 0 -- -- 12
2019-08-20 05:00:00 19.9 15 Sudeste 30 Sudeste 0 -- -- 13
2019-08-20 04:00:00 20.8 8 Este 31 Sudeste 0 -- -- 12
2019-08-20 03:00:00 22 17 Sudeste 31 Sudeste 0 -- -- 12
2019-08-20 02:00:00 22.1 6 Este 17 Este 0 -- -- 14
2019-08-20 01:00:00 22.9 8 Nordeste 19 Sudeste 0 -- -- 13
2019-08-20 00:00:00 23.3 5 Este 17 Sudeste 0 -- -- 16
2019-08-19 23:00:00 23.7 5 Este 18 Sudeste 0 -- -- 15
2019-08-19 22:00:00 23.6 8 Este 22 Este 0 -- -- 14
2019-08-19 21:00:00 24 8 Este 18 Sudeste 0 -- -- 16
2019-08-19 20:00:00 24.8 6 Este 18 Este 0 -- -- 15
2019-08-19 19:00:00 27.1 5 Este 20 Este 0 -- -- 18
2019-08-19 18:00:00 28.6 13 Sudeste 26 Este 0 -- -- 17
2019-08-19 17:00:00 29 12 Este 25 Este 0 -- -- 20
2019-08-19 16:00:00 30 9 Este 31 Este 0 -- -- 18
2019-08-19 15:00:00 29.8 15 Este 32 Este 0 -- -- 18
2019-08-19 14:00:00 30 15 Sudeste 33 Sudeste 0 -- -- 16
2019-08-19 13:00:00 29.4 18 Sudeste 36 Sudeste 0 -- -- 15
2019-08-19 12:00:00 29.3 15 Sudeste 34 Sudeste 0 -- -- 15
2019-08-19 11:00:00 27.8 20 Sudeste 39 Este 0 -- -- 15
2019-08-19 10:00:00 26.9 16 Este 32 Sudeste 0 -- -- 15
2019-08-19 09:00:00 24.1 10 Este 31 Este 0 -- -- 16
2019-08-19 08:00:00 23.8 16 Este 32 Este 0 -- -- 15
2019-08-19 07:00:00 22.3 8 Este 28 Este 0 -- -- 17
2019-08-19 06:00:00 21.9 11 Este 30 Este 0 -- -- 18
2019-08-19 05:00:00 24.2 7 Este 32 Nordeste 0 -- -- 14
2019-08-19 04:00:00 24 9 Este 34 Nordeste 0 -- -- 14
2019-08-19 03:00:00 24.4 14 Este 35 Nordeste 0 -- -- 14
2019-08-19 02:00:00 24.8 6 Este 35 Este 0 -- -- 14
2019-08-19 01:00:00 24.6 6 Este 40 Nordeste 0 -- -- 14
2019-08-19 00:00:00 24.3 13 Este 39 Nordeste 0 -- -- 14
2019-08-18 23:00:00 24.4 10 Este 45 Nordeste 0 -- -- 14
2019-08-18 22:00:00 24.5 18 Este 44 Este 0 -- -- 14
2019-08-18 21:00:00 24.7 9 Este 38 Nordeste 0 -- -- 15
2019-08-18 20:00:00 24.8 18 Este 40 Nordeste 0 -- -- 15
2019-08-18 19:00:00 26 7 Este 27 Nordeste 0 -- -- 16
2019-08-18 18:00:00 26.2 7 Este 30 Este 0 -- -- 16
2019-08-18 17:00:00 27.2 7 Este 26 Este 0 -- -- 15
2019-08-18 16:00:00 27.6 6 Este 31 Nordeste 0 -- -- 16
2019-08-18 15:00:00 27.2 9 Este 38 Nordeste 0 -- -- 15
2019-08-18 14:00:00 27.1 7 Este 39 Nordeste 0 -- -- 15
2019-08-18 13:00:00 27.8 8 Este 43 Este 0 -- -- 14
2019-08-18 12:00:00 27.4 6 Este 28 Nordeste 0 -- -- 13
2019-08-18 11:00:00 27.3 8 Este 37 Nordeste 0 -- -- 12
2019-08-18 10:00:00 26.5 7 Este 39 Nordeste 0 -- -- 12
2019-08-18 09:00:00 25.3 12 Este 41 Este 0 -- -- 12
2019-08-18 08:00:00 24.3 18 Este 40 Nordeste 0 -- -- 11
2019-08-18 07:00:00 23.4 9 Este 32 Nordeste 0 -- -- 11
2019-08-18 06:00:00 23.2 10 Este 41 Este 0 -- -- 12
2019-08-18 05:00:00 22.6 11 Este 45 Nordeste 0 -- -- 15
2019-08-18 04:00:00 23.2 33 Este 45 Nordeste 0 -- -- 13
2019-08-18 03:00:00 22.3 18 Este 40 Este 0 -- -- 18
2019-08-18 02:00:00 22.2 6 Este 39 Nordeste 0 -- -- 18
2019-08-18 01:00:00 24.1 11 Este 35 Nordeste 0 -- -- 12
2019-08-18 00:00:00 24.1 9 Este 35 Nordeste 0 -- -- 10
2019-08-17 23:00:00 25.1 12 Este 31 Nordeste 0 -- -- 11
2019-08-17 22:00:00 25 12 Este 33 Este 0 -- -- 11
2019-08-17 21:00:00 25.2 13 Este 33 Nordeste 0 -- -- 11
2019-08-17 20:00:00 25.7 7 Este 33 Nordeste 0 -- -- 15
2019-08-17 19:00:00 27.2 6 Este 32 Este 0 -- -- 14
2019-08-17 18:00:00 27.3 8 Este 32 Este 0 -- -- 15
2019-08-17 17:00:00 27.6 5 Este 34 Nordeste 0 -- -- 14
2019-08-17 16:00:00 29.4 7 Este 33 Este 0 -- -- 14
2019-08-17 15:00:00 29.5 6 Este 32 Este 0 -- -- 13
2019-08-17 14:00:00 29.7 8 Este 35 Este 0 -- -- 13
2019-08-17 13:00:00 29.3 8 Este 44 Este 0 -- -- 13
2019-08-17 12:00:00 29 11 Este 39 Este 0 -- -- 13
2019-08-17 11:00:00 28.8 11 Este 37 Este 0 -- -- 13
2019-08-17 10:00:00 28 9 Este 32 Este 0 -- -- 12
2019-08-17 09:00:00 26.7 12 Este 33 Este 0 -- -- 12
2019-08-17 08:00:00 25.7 19 Este 41 Este 0 -- -- 14
2019-08-17 07:00:00 24.6 17 Este 38 Nordeste 0 -- -- 15
2019-08-17 06:00:00 24.1 21 Este 41 Este 0 -- -- 18
2019-08-17 05:00:00 24.6 21 Este 39 Este 0 -- -- 18
2019-08-17 04:00:00 25.2 14 Este 41 Nordeste 0 -- -- 17
2019-08-17 03:00:00 25.6 14 Este 37 Nordeste 0 -- -- 16
2019-08-17 02:00:00 25.7 9 Este 38 Nordeste 0 -- -- 16
2019-08-17 01:00:00 26 17 Este 36 Este 0 -- -- 16
2019-08-17 00:00:00 26.4 14 Nordeste 32 Nordeste 0 -- -- 16
2019-08-16 23:00:00 26.6 17 Este 30 Nordeste 0 -- -- 16
2019-08-16 22:00:00 27.2 20 Nordeste 29 Nordeste 0 -- -- 16
2019-08-16 21:00:00 27.7 19 Nordeste 27 Nordeste 0 -- -- 20
2019-08-16 20:00:00 28.3 13 Este 23 Nordeste 0 -- -- 23
2019-08-16 19:00:00 29.6 6 Este 22 Este 0 -- -- 22
2019-08-16 18:00:00 30.3 6 Este 26 Nordeste 0 -- -- 21
2019-08-16 17:00:00 30 5 Este 25 Este 0 -- -- 21
2019-08-16 16:00:00 28.9 5 Este 28 Nordeste 0 -- -- 28
2019-08-16 15:00:00 30.8 10 Este 34 Nordeste 0 -- -- 20
2019-08-16 14:00:00 30.9 10 Este 36 Este 0 -- -- 20
2019-08-16 13:00:00 30.3 15 Este 38 Nordeste 0 -- -- 19
2019-08-16 12:00:00 30 8 Este 31 Nordeste 0 -- -- 20
2019-08-16 11:00:00 29.5 5 Nordeste 28 Nordeste 0 -- -- 19
2019-08-16 10:00:00 28.6 10 Este 28 Este 0 -- -- 18
2019-08-16 09:00:00 27.6 14 Este 33 Este 0 -- -- 17
2019-08-16 08:00:00 26.3 22 Este 33 Nordeste 0 -- -- 14
2019-08-16 07:00:00 24.7 19 Este 31 Este 0 -- -- 12
2019-08-16 06:00:00 24.3 18 Este 24 Nordeste 0 -- -- 14
2019-08-16 05:00:00 23.7 14 Este 21 Nordeste 0 -- -- 19
2019-08-16 04:00:00 24.8 11 Este 19 Nordeste 0 -- -- 18
2019-08-16 03:00:00 25 15 Nordeste 20 Nordeste 0 -- -- 16
2019-08-16 02:00:00 24.4 13 Nordeste 19 Este 0 -- -- 19
2019-08-16 01:00:00 22.9 5 Este 12 Nordeste 0 -- -- 25
2019-08-16 00:00:00 22.6 0 Calma 9 Nordeste 0 -- -- 23
2019-08-15 23:00:00 25.3 4 Sudeste 8 Nordeste 0 -- -- 20
2019-08-15 22:00:00 23.6 2 Nordeste 8 Nordeste 0 -- -- 24
2019-08-15 21:00:00 22.9 4 Este 9 Nordeste 0 -- -- 33
2019-08-15 20:00:00 25.3 3 Nordeste 9 Sudeste 0 -- -- 30
2019-08-15 19:00:00 24.9 4 Este 13 Sudeste 0 -- -- 32
2019-08-15 18:00:00 30 4 Nordeste 14 Este 0 -- -- 23
2019-08-15 17:00:00 27.1 5 Este 14 Este 0 -- -- 35
2019-08-15 16:00:00 29.4 5 Sudeste 16 Este 0 -- -- 29
2019-08-15 15:00:00 28.3 6 Este 21 Este 0 -- -- 26
2019-08-15 14:00:00 26.5 5 Este 15 Sudeste 0 -- -- 25
2019-08-15 13:00:00 24.9 5 Este 21 Este 0 -- -- 26
2019-08-15 12:00:00 23.8 4 Este 15 Este 0 -- -- 30
2019-08-15 11:00:00 22.9 3 Este 15 Nordeste 0 -- -- 27
2019-08-15 10:00:00 21.2 5 Este 14 Este 0 -- -- 29
2019-08-15 09:00:00 19.3 4 Este 14 Nordeste 0 -- -- 27
2019-08-15 08:00:00 18 5 Este 11 Este 0 -- -- 26
2019-08-15 07:00:00 17.9 2 Este 8 Nordeste 0 -- -- 23
2019-08-15 06:00:00 18.2 4 Este 10 Este 0 -- -- 24
2019-08-15 05:00:00 18 3 Nordeste 9 Nordeste 0 -- -- 25
2019-08-15 04:00:00 18.4 5 Nordeste 10 Nordeste 0 -- -- 23
2019-08-15 03:00:00 16.7 3 Nordeste 9 Nordeste 0 -- -- 29
2019-08-15 02:00:00 17.1 3 Este 14 Nordeste 0 -- -- 25
2019-08-15 01:00:00 17.6 9 Nordeste 13 Nordeste 0 -- -- 22
2019-08-15 00:00:00 16.7 2 Nordeste 7 Nordeste 0 -- -- 23
2019-08-14 23:00:00 18.1 0 Calma 4 Nordeste 0 -- -- 27
2019-08-14 22:00:00 19 3 Nordeste 10 Nordeste 0 -- -- 15
2019-08-14 21:00:00 19.5 8 Nordeste 15 Nordeste 0 -- -- 14
2019-08-14 20:00:00 19.3 10 Nordeste 17 Nordeste 0 -- -- 16
2019-08-14 19:00:00 19.8 2 Nordeste 12 Este 0 -- -- 23
2019-08-14 18:00:00 20.4 4 Este 18 Este 0 -- -- 27
2019-08-14 17:00:00 21.2 5 Este 23 Este 0 -- -- 23
2019-08-14 16:00:00 21.5 8 Este 22 Sudeste 0 -- -- 31
2019-08-14 15:00:00 21.7 5 Este 22 Este 0 -- -- 21
2019-08-14 14:00:00 21.1 6 Este 21 Este 0 -- -- 26
2019-08-14 13:00:00 21.6 5 Este 24 Este 0 -- -- 19
2019-08-14 12:00:00 21.4 5 Este 19 Nordeste 0 -- -- 16
2019-08-14 11:00:00 19.7 4 Nordeste 19 Este 0 -- -- 22
2019-08-14 10:00:00 18.7 6 Este 19 Este 0 -- -- 21
2019-08-14 09:00:00 16.5 6 Este 18 Este 0 -- -- 26
2019-08-14 08:00:00 15.2 11 Este 19 Nordeste 0 -- -- 27
2019-08-14 07:00:00 15 10 Este 18 Nordeste 0 -- -- 28
2019-08-14 06:00:00 15.5 8 Este 21 Nordeste 0 -- -- 20
2019-08-14 05:00:00 15.3 11 Este 19 Nordeste 0 -- -- 9
2019-08-14 04:00:00 16 13 Nordeste 22 Nordeste 0 -- -- 4
2019-08-14 03:00:00 16.4 4 Este 14 Nordeste 0 -- -- 3
2019-08-14 02:00:00 17.3 4 Este 16 Nordeste 0 -- -- 3
2019-08-14 01:00:00 17.7 5 Este 22 Nordeste 0 -- -- 3
2019-08-14 00:00:00 17 16 Nordeste 26 Nordeste 0 -- -- 3
2019-08-13 23:00:00 16.9 16 Este 30 Nordeste 0 -- -- 5
2019-08-13 22:00:00 16.2 13 Nordeste 31 Nordeste 0 -- -- 6
2019-08-13 21:00:00 16.9 8 Este 25 Sudeste 0 -- -- 11
2019-08-13 20:00:00 17.9 10 Este 29 Este 0 -- -- 14
2019-08-13 19:00:00 18.2 8 Este 28 Nordeste 0 -- -- 27
2019-08-13 18:00:00 18.6 9 Este 28 Este 0 -- -- 29
2019-08-13 17:00:00 19.3 10 Este 27 Nordeste 0 -- -- 30
2019-08-13 16:00:00 19.4 6 Este 25 Nordeste 0 -- -- 40
2019-08-13 15:00:00 20.5 10 Este 32 Este 0 -- -- 36
2019-08-13 14:00:00 20.6 8 Este 30 Nordeste 0 -- -- 38
2019-08-13 13:00:00 21.3 9 Este 28 Este 0 -- -- 35
2019-08-13 12:00:00 21.1 11 Este 35 Nordeste 0 -- -- 29
2019-08-13 11:00:00 20.4 18 Nordeste 42 Nordeste 0 -- -- 19
2019-08-13 10:00:00 19.4 22 Nordeste 41 Nordeste 0 -- -- 10
2019-08-13 09:00:00 17.9 24 Este 41 Nordeste 0 -- -- 7
2019-08-13 08:00:00 17.3 22 Este 45 Este 0 -- -- 9
2019-08-13 07:00:00 16.5 19 Este 47 Nordeste 0 -- -- 9
2019-08-13 06:00:00 16.5 30 Nordeste 46 Nordeste 0 -- -- 10
2019-08-13 05:00:00 16.7 28 Nordeste 46 Nordeste 0 -- -- 12
2019-08-13 04:00:00 16.6 25 Nordeste 47 Nordeste 0 -- -- 12
2019-08-13 03:00:00 16.7 26 Nordeste 54 Nordeste 0 -- -- 13
2019-08-13 02:00:00 16.8 34 Nordeste 50 Este 0 -- -- 13
2019-08-13 01:00:00 16.5 27 Nordeste 58 Nordeste 0 -- -- 12
2019-08-13 00:00:00 17.3 29 Nordeste 53 Nordeste 0 -- -- 11
2019-08-12 23:00:00 17.3 30 Nordeste 52 Este 0 -- -- 11
2019-08-12 22:00:00 17.1 28 Nordeste 56 Nordeste 0 -- -- 11
2019-08-12 21:00:00 17.2 27 Nordeste 54 Nordeste 0 -- -- 14
2019-08-12 20:00:00 17.7 28 Nordeste 54 Nordeste 0 -- -- 15
2019-08-12 19:00:00 18.6 23 Este 51 Nordeste 0 -- -- 16
2019-08-12 18:00:00 19.7 12 Este 53 Este 0 -- -- 16
2019-08-12 17:00:00 19.5 14 Este 55 Sudeste 0 -- -- 19
2019-08-12 16:00:00 19.9 15 Este 51 Sudeste 0 -- -- 16
2019-08-12 15:00:00 20 17 Este 55 Sudeste 0 -- -- 21
2019-08-12 14:00:00 19.9 21 Este 48 Este 0 -- -- 25
2019-08-12 13:00:00 18.5 9 Este 45 Sudeste 0 -- -- 46
2019-08-12 12:00:00 18.4 17 Este 44 Sudeste 0 -- -- 48
2019-08-12 11:00:00 16.9 11 Este 39 Sudeste 0 -- -- 53
2019-08-12 10:00:00 16.4 12 Este 48 Nordeste 0 -- -- 50
2019-08-12 09:00:00 15.6 15 Este 49 Nordeste 0 -- -- 51
2019-08-12 08:00:00 14.9 9 Este 46 Nordeste 0 -- -- 52
2019-08-12 07:00:00 14.1 8 Este 47 Nordeste 0 -- -- 55
2019-08-12 06:00:00 14.7 16 Este 46 Nordeste 0 -- -- 49
2019-08-12 05:00:00 14.5 17 Este 49 Este 0 -- -- 46
2019-08-12 04:00:00 13.9 13 Este 51 Este 0 -- -- 43
2019-08-12 03:00:00 14.2 20 Este 50 Este 0 -- -- 30
2019-08-12 02:00:00 14.5 15 Este 45 Este 0 -- -- 28
2019-08-12 01:00:00 14.4 17 Este 48 Nordeste 0 -- -- 26
2019-08-12 00:00:00 15 11 Este 51 Nordeste 0 -- -- 28
2019-08-11 23:00:00 14.9 32 Nordeste 48 Nordeste 0 -- -- 32
2019-08-11 22:00:00 18.1 30 Nordeste 45 Nordeste 0 -- -- 15
2019-08-11 21:00:00 17.5 22 Nordeste 35 Nordeste 0 -- -- 21
2019-08-11 20:00:00 17.2 6 Este 27 Nordeste 0 -- -- 31
2019-08-11 19:00:00 17.4 8 Este 21 Este 0 -- -- 46
2019-08-11 18:00:00 18.1 5 Este 19 Nordeste 0 -- -- 61
2019-08-11 17:00:00 19.2 7 Este 16 Nordeste 0 -- -- 71
2019-08-11 16:00:00 23.3 5 Este 15 Nordeste 0 -- -- 47
2019-08-11 15:00:00 24.1 4 Este 19 Nordeste 0 -- -- 50
2019-08-11 14:00:00 25.9 10 Este 19 Nordeste 0 -- -- 35
2019-08-11 13:00:00 24.4 8 Este 28 Este 0 -- -- 34
2019-08-11 12:00:00 23.5 8 Este 32 Nordeste 0 -- -- 37
2019-08-11 11:00:00 21.1 14 Este 37 Nordeste 0 -- -- 48
2019-08-11 10:00:00 18.8 20 Nordeste 44 Nordeste 0 -- -- 54
2019-08-11 09:00:00 16.4 8 Este 33 Nordeste 0 -- -- 75
2019-08-11 08:00:00 18 18 Nordeste 31 Nordeste 0 -- -- 40
2019-08-11 07:00:00 18.4 16 Este 31 Nordeste 0 -- -- 39
2019-08-11 06:00:00 18.8 18 Nordeste 31 Nordeste 0 -- -- 39
2019-08-11 05:00:00 17.5 11 Este 24 Nordeste 0 -- -- 51
2019-08-11 04:00:00 17.4 14 Nordeste 33 Nordeste 0 -- -- 49
2019-08-11 03:00:00 17.7 13 Este 34 Este 0 -- -- 45
2019-08-11 02:00:00 17.3 18 Este 42 Nordeste 0 -- -- 49
2019-08-11 01:00:00 17.9 15 Este 37 Nordeste 0 -- -- 45
2019-08-11 00:00:00 18.9 9 Este 31 Nordeste 0 -- -- 45
2019-08-10 23:00:00 20.1 8 Este 24 Nordeste 0 -- -- 37
2019-08-10 22:00:00 21.4 8 Este 29 Este 0 -- -- 20
2019-08-10 21:00:00 21.7 6 Este 25 Este 0 -- -- 15
2019-08-10 20:00:00 21.9 8 Este 21 Nordeste 0 -- -- 34
2019-08-10 19:00:00 24.2 5 Este 15 Sudeste 0 -- -- 30
2019-08-10 18:00:00 23.6 4 Este 14 Sudeste 0 -- -- 41
2019-08-10 17:00:00 24.7 6 Este 18 Este 0 -- -- 41
2019-08-10 16:00:00 24.3 5 Este 16 Sudeste 0 -- -- 48
2019-08-10 15:00:00 24.6 5 Este 17 Sur 0 -- -- 45
2019-08-10 14:00:00 25.1 5 Este 20 Sudeste 0 -- -- 40
2019-08-10 13:00:00 26 6 Este 22 Este 0 -- -- 33
2019-08-10 12:00:00 25.6 9 Este 21 Este 0 -- -- 25
2019-08-10 11:00:00 23.8 5 Este 17 Este 0 -- -- 25
2019-08-10 10:00:00 24.1 6 Este 17 Sudeste 0 -- -- 12
2019-08-10 09:00:00 23.2 6 Este 18 Nordeste 0 -- -- 7
2019-08-10 08:00:00 23.7 9 Nordeste 19 Nordeste 0 -- -- 4
2019-08-10 07:00:00 23.2 8 Nordeste 17 Nordeste 0 -- -- 4
2019-08-10 06:00:00 24 8 Norte 18 Norte 0 -- -- 6
2019-08-10 05:00:00 24.1 10 Norte 21 Norte 0 -- -- 5
2019-08-10 04:00:00 24.1 7 Norte 21 Nordeste 0 -- -- 7
2019-08-10 03:00:00 24.1 10 Nordeste 22 Nordeste 0 -- -- 4
2019-08-10 02:00:00 24.2 12 Nordeste 21 Nordeste 0 -- -- 4
2019-08-10 01:00:00 24.2 9 Nordeste 21 Norte 0 -- -- 4
2019-08-10 00:00:00 24.3 8 Norte 19 Norte 0 -- -- 8
2019-08-09 23:00:00 24.5 7 Norte 17 Noroeste 0 -- -- 9
2019-08-09 22:00:00 24.6 9 Norte 21 Noroeste 0 -- -- 15
2019-08-09 21:00:00 25 6 Norte 16 Nordeste 0 -- -- 21
2019-08-09 20:00:00 27.6 3 Sur 13 Nordeste 0 -- -- 21
2019-08-09 19:00:00 29.7 3 Sur 12 Sur 0 -- -- 24
2019-08-09 18:00:00 29.5 5 Sur 21 Oeste 0 -- -- 28
2019-08-09 17:00:00 29 5 Sudeste 20 Oeste 0 -- -- 31
2019-08-09 16:00:00 28.8 5 Este 22 Oeste 0 -- -- 34
2019-08-09 15:00:00 28.9 9 Oeste 25 Oeste 0 -- -- 31
2019-08-09 14:00:00 29.7 9 Oeste 23 Oeste 0 -- -- 30
2019-08-09 13:00:00 29.8 7 Sudoeste 25 Sur 0 -- -- 27
2019-08-09 12:00:00 28 8 Oeste 16 Oeste 0 -- -- 24
2019-08-09 11:00:00 27.1 8 Oeste 17 Oeste 0 -- -- 27
2019-08-09 10:00:00 25.7 9 Oeste 18 Oeste 0 -- -- 28
2019-08-09 09:00:00 24.7 7 Oeste 15 Oeste 0 -- -- 27
2019-08-09 08:00:00 24.2 10 Oeste 18 Oeste 0 -- -- 25
2019-08-09 07:00:00 23.5 6 Oeste 18 Oeste 0 -- -- 18
2019-08-09 06:00:00 23.9 9 Oeste 17 Oeste 0 -- -- 17
2019-08-09 05:00:00 22.9 6 Oeste 17 Oeste 0 -- -- 13
2019-08-09 04:00:00 23.2 10 Oeste 21 Oeste 0 -- -- 13
2019-08-09 03:00:00 23.6 9 Oeste 17 Oeste 0 -- -- 22
2019-08-09 02:00:00 23.4 8 Oeste 17 Oeste 0 -- -- 25
2019-08-09 01:00:00 24.1 10 Oeste 24 Oeste 0 -- -- 27
2019-08-09 00:00:00 24.6 10 Oeste 23 Oeste 0 -- -- 27
2019-08-08 23:00:00 24.8 12 Oeste 21 Oeste 0 -- -- 25
2019-08-08 22:00:00 25 13 Oeste 23 Oeste 0 -- -- 23
2019-08-08 21:00:00 25.3 12 Oeste 20 Oeste 0 -- -- 25
2019-08-08 20:00:00 25.7 12 Oeste 21 Oeste 0 -- -- 28
2019-08-08 19:00:00 27.6 14 Oeste 26 Oeste 0 -- -- 25
2019-08-08 18:00:00 28 13 Oeste 24 Oeste 0 -- -- 23
2019-08-08 17:00:00 28.1 12 Oeste 25 Oeste 0 -- -- 16
2019-08-08 16:00:00 28 14 Oeste 30 Oeste 0 -- -- 17
2019-08-08 15:00:00 28 17 Oeste 30 Oeste 0 -- -- 17
2019-08-08 14:00:00 28.5 15 Oeste 24 Oeste 0 -- -- 18
2019-08-08 13:00:00 28.1 12 Oeste 23 Oeste 0 -- -- 16
2019-08-08 12:00:00 27.6 13 Oeste 23 Oeste 0 -- -- 15
2019-08-08 11:00:00 27 15 Oeste 24 Oeste 0 -- -- 10
2019-08-08 10:00:00 26.4 12 Oeste 23 Oeste 0 -- -- 11
2019-08-08 09:00:00 25.4 12 Oeste 23 Oeste 0 -- -- 9
2019-08-08 08:00:00 24.6 8 Oeste 14 Oeste 0 -- -- 6
2019-08-08 07:00:00 24.1 6 Oeste 16 Oeste 0 -- -- 6
2019-08-08 06:00:00 25 13 Oeste 21 Oeste 0 -- -- 8
2019-08-08 05:00:00 24.3 9 Oeste 19 Oeste 0 -- -- 7
2019-08-08 04:00:00 24.2 8 Oeste 18 Oeste 0 -- -- 8
2019-08-08 03:00:00 24.5 10 Oeste 19 Oeste 0 -- -- 8
2019-08-08 02:00:00 24.5 8 Oeste 24 Oeste 0 -- -- 9
2019-08-08 01:00:00 24.8 14 Oeste 22 Oeste 0 -- -- 8
2019-08-08 00:00:00 25 11 Oeste 21 Sudoeste 0 -- -- 9
2019-08-07 23:00:00 25 9 Oeste 18 Oeste 0 -- -- 10
2019-08-07 22:00:00 24.9 8 Oeste 14 Oeste 0 -- -- 12
2019-08-07 21:00:00 25.7 5 Oeste 17 Sudoeste 0 -- -- 11
2019-08-07 20:00:00 26 8 Oeste 15 Oeste 0 -- -- 28
2019-08-07 19:00:00 26.5 6 Oeste 12 Noroeste 0 -- -- 38
2019-08-07 18:00:00 26.3 3 Este 15 Oeste 0 -- -- 42
2019-08-07 17:00:00 25.4 7 Oeste 15 Oeste 0 -- -- 41
2019-08-07 16:00:00 26.5 5 Sudoeste 15 Oeste 0 -- -- 46
2019-08-07 15:00:00 26 3 Sudeste 14 Este 0 -- -- 45
2019-08-07 14:00:00 25.9 4 Este 13 Nordeste 0 -- -- 36
2019-08-07 13:00:00 22.9 5 Este 16 Sudeste 0 -- -- 32
2019-08-07 12:00:00 23.9 4 Este 13 Este 0 -- -- 33
2019-08-07 11:00:00 23.4 4 Oeste 10 Sudeste 0 -- -- 13
2019-08-07 10:00:00 22.9 3 Este 9 Este 0 -- -- 11
2019-08-07 09:00:00 21.1 3 Oeste 13 Nordeste 0 -- -- 10
2019-08-07 08:00:00 18.8 5 Este 16 Nordeste 0 -- -- 15
2019-08-07 07:00:00 19.3 12 Nordeste 16 Nordeste 0 -- -- 11
2019-08-07 06:00:00 18.9 14 Nordeste 22 Nordeste 0 -- -- 14
2019-08-07 05:00:00 18.4 15 Nordeste 24 Este 0 -- -- 17
2019-08-07 04:00:00 18 15 Nordeste 21 Este 0 -- -- 18
2019-08-07 03:00:00 17.4 10 Nordeste 23 Nordeste 0 -- -- 18
2019-08-07 02:00:00 17.3 18 Nordeste 25 Este 0 -- -- 20
2019-08-07 01:00:00 15 19 Nordeste 31 Nordeste 0 -- -- 32
2019-08-07 00:00:00 15.1 13 Este 27 Nordeste 0 -- -- 29
2019-08-06 23:00:00 15.3 11 Este 29 Nordeste 0 -- -- 28
2019-08-06 22:00:00 17.7 22 Nordeste 26 Nordeste 0 -- -- 20
2019-08-06 21:00:00 17 9 Este 20 Nordeste 0 -- -- 25
2019-08-06 20:00:00 17.9 5 Este 18 Nordeste 0 -- -- 40
2019-08-06 19:00:00 18.4 5 Este 11 Este 0 -- -- 64
2019-08-06 18:00:00 18.9 3 Este 14 Este 0 -- -- 58
2019-08-06 17:00:00 20 4 Este 19 Este 0 -- -- 57
2019-08-06 16:00:00 21.2 8 Este 19 Sudeste 0 -- -- 32
2019-08-06 15:00:00 21 8 Este 30 Este 0 -- -- 40
2019-08-06 14:00:00 21.1 5 Este 28 Nordeste 0 -- -- 33
2019-08-06 13:00:00 21.1 7 Este 32 Este 0 -- -- 30
2019-08-06 12:00:00 20.5 9 Este 37 Nordeste 0 -- -- 31
2019-08-06 11:00:00 19.7 9 Este 35 Sudeste 0 -- -- 31
2019-08-06 10:00:00 18.9 12 Este 36 Nordeste 0 -- -- 30
2019-08-06 09:00:00 16.7 17 Este 38 Nordeste 0 -- -- 35
2019-08-06 08:00:00 15.6 15 Este 34 Este 0 -- -- 37
2019-08-06 07:00:00 14.5 15 Nordeste 35 Nordeste 0 -- -- 44
2019-08-06 06:00:00 13.9 24 Nordeste 36 Nordeste 0 -- -- 53
2019-08-06 05:00:00 12.7 17 Nordeste 38 Nordeste 0 -- -- 68
2019-08-06 04:00:00 11.2 9 Este 43 Nordeste 0 -- -- 82
2019-08-06 03:00:00 11.4 12 Este 41 Nordeste 0 -- -- 84
2019-08-06 02:00:00 10.9 11 Este 47 Nordeste 0 -- -- 94
2019-08-06 01:00:00 12.5 23 Este 47 Nordeste 0 -- -- 74
2019-08-06 00:00:00 12.4 22 Este 50 Este 0 -- -- 76
2019-08-05 23:00:00 13.5 30 Nordeste 51 Nordeste 0 -- -- 64
2019-08-05 22:00:00 14.3 26 Nordeste 52 Nordeste 0 -- -- 55
2019-08-05 21:00:00 14.3 24 Nordeste 47 Nordeste 0 -- -- 59
2019-08-05 20:00:00 14.7 12 Este 37 Nordeste 0 -- -- 62
2019-08-05 19:00:00 16.3 8 Este 36 Sudeste 0 -- -- 57
2019-08-05 18:00:00 17 8 Este 32 Este 0 -- -- 58
2019-08-05 17:00:00 17.5 13 Este 38 Sudeste 0 -- -- 48
2019-08-05 16:00:00 17.9 10 Este 44 Este 0 -- -- 46
2019-08-05 15:00:00 18.1 14 Este 44 Este 0 -- -- 41
2019-08-05 14:00:00 18.1 21 Este 48 Sudeste 0 -- -- 48
2019-08-05 13:00:00 18 12 Este 44 Sudeste 0 -- -- 51
2019-08-05 12:00:00 18 12 Este 44 Sudeste 0 -- -- 45
2019-08-05 11:00:00 17.8 12 Este 36 Este 0 -- -- 43
2019-08-05 10:00:00 16.4 5 Este 31 Este 0 -- -- 53
2019-08-05 09:00:00 15.1 12 Este 30 Nordeste 0 -- -- 45
2019-08-05 08:00:00 14.1 15 Este 38 Nordeste 0 -- -- 39
2019-08-05 07:00:00 13.1 24 Nordeste 37 Nordeste 0 -- -- 53
2019-08-05 06:00:00 14.7 18 Nordeste 35 Nordeste 0 -- -- 33
2019-08-05 05:00:00 10.1 8 Este 22 Este 0 -- -- 85
2019-08-05 04:00:00 12.7 5 Este 19 Nordeste 0 -- -- 41
2019-08-05 03:00:00 14.4 6 Este 21 Nordeste 0 -- -- 34
2019-08-05 02:00:00 14 7 Este 30 Nordeste 0 -- -- 41
2019-08-05 01:00:00 11.2 8 Este 30 Nordeste 0 -- -- 69
2019-08-05 00:00:00 11.3 14 Este 27 Este 0 -- -- 77
2019-08-04 23:00:00 12.5 3 Este 25 Este 0 -- -- 57
2019-08-04 22:00:00 15.6 10 Este 26 Nordeste 0 -- -- 27
2019-08-04 21:00:00 16.1 16 Este 24 Nordeste 0 -- -- 24
2019-08-04 20:00:00 14 9 Este 18 Nordeste 0 -- -- 81
2019-08-04 19:00:00 15.2 7 Este 15 Nordeste 0 -- -- 80
2019-08-04 18:00:00 16.4 4 Este 16 Nordeste 0 -- -- 72
2019-08-04 17:00:00 16.7 6 Este 24 Sudeste 0 -- -- 71
2019-08-04 16:00:00 16.7 5 Este 23 Sudeste 0 -- -- 71
2019-08-04 15:00:00 18.1 6 Este 22 Sudeste 0 -- -- 66
2019-08-04 14:00:00 18.6 6 Este 16 Sudeste 0 -- -- 63
2019-08-04 13:00:00 17.2 5 Este 19 Este 0 -- -- 65
2019-08-04 12:00:00 16.9 5 Este 20 Este 0 -- -- 63
2019-08-04 11:00:00 16.9 5 Este 19 Sudeste 0 -- -- 57
2019-08-04 10:00:00 16.9 4 Este 19 Este 0 -- -- 47
2019-08-04 09:00:00 15.9 5 Este 14 Nordeste 0 -- -- 31
2019-08-04 08:00:00 16.3 7 Nordeste 12 Nordeste 0 -- -- 30
2019-08-04 07:00:00 15.3 10 Nordeste 13 Nordeste 0 -- -- 34
2019-08-04 06:00:00 15.6 10 Nordeste 14 Nordeste 0 -- -- 30
2019-08-04 05:00:00 15.5 12 Nordeste 20 Nordeste 0 -- -- 25
2019-08-04 04:00:00 15.7 17 Nordeste 24 Nordeste 0 -- -- 22
2019-08-04 03:00:00 15.5 12 Este 27 Nordeste 0 -- -- 25
2019-08-04 02:00:00 15.4 18 Nordeste 27 Nordeste 0 -- -- 26
2019-08-04 01:00:00 15.3 19 Nordeste 28 Nordeste 0 -- -- 29
2019-08-04 00:00:00 15.2 8 Este 23 Nordeste 0 -- -- 28
2019-08-03 23:00:00 15.2 10 Nordeste 32 Nordeste 0 -- -- 35
2019-08-03 22:00:00 15.4 16 Nordeste 28 Nordeste 0 -- -- 37
2019-08-03 21:00:00 15.3 17 Nordeste 27 Nordeste 0 -- -- 43
2019-08-03 20:00:00 16.8 8 Nordeste 21 Nordeste 0 -- -- 43
2019-08-03 19:00:00 18.3 4 Este 11 Nordeste 0 -- -- 56
2019-08-03 18:00:00 21.1 3 Este 9 Este 0 -- -- 55
2019-08-03 17:00:00 22.7 4 Este 12 Este 0 -- -- 51
2019-08-03 16:00:00 22.3 5 Este 12 Este 0 -- -- 53
2019-08-03 15:00:00 22.3 5 Sudeste 14 Este 0 -- -- 52
2019-08-03 14:00:00 20.5 8 Este 19 Sudeste 0 -- -- 52
2019-08-03 13:00:00 21.2 7 Este 21 Sudeste 0 -- -- 41
2019-08-03 12:00:00 20.9 7 Este 26 Este 0 -- -- 34
2019-08-03 11:00:00 20.1 7 Este 24 Este 0 -- -- 38
2019-08-03 10:00:00 18.9 8 Este 23 Nordeste 0 -- -- 45
2019-08-03 09:00:00 17.5 6 Este 27 Nordeste 0 -- -- 49
2019-08-03 08:00:00 16.4 16 Nordeste 29 Nordeste 0 -- -- 51
2019-08-03 07:00:00 15.2 3 Nordeste 27 Este 0 -- -- 52
2019-08-03 06:00:00 15.1 17 Nordeste 30 Nordeste 0 -- -- 51
2019-08-03 05:00:00 15.3 23 Nordeste 32 Nordeste 0 -- -- 48
2019-08-03 04:00:00 15.4 22 Nordeste 27 Nordeste 0 -- -- 33
2019-08-03 03:00:00 15.3 22 Nordeste 27 Nordeste 0 -- -- 34
2019-08-03 02:00:00 15.5 20 Nordeste 26 Nordeste 0 -- -- 35
2019-08-03 01:00:00 15.5 21 Nordeste 28 Nordeste 0 -- -- 38
2019-08-03 00:00:00 15.5 13 Nordeste 31 Este 0 -- -- 37
2019-08-02 23:00:00 16.3 18 Este 31 Nordeste 0 -- -- 35
2019-08-02 22:00:00 16.4 10 Este 28 Nordeste 0 -- -- 34
2019-08-02 21:00:00 17 17 Nordeste 27 Este 0 -- -- 31
2019-08-02 20:00:00 17.8 6 Nordeste 24 Este 0 -- -- 35
2019-08-02 19:00:00 19.6 11 Este 24 Este 0 -- -- 29
2019-08-02 18:00:00 20.3 4 Nordeste 21 Este 0 -- -- 38
2019-08-02 17:00:00 20.3 5 Este 16 Sudeste 0 -- -- 46
2019-08-02 16:00:00 19.9 4 Este 19 Este 0 -- -- 51
2019-08-02 15:00:00 19.7 5 Este 21 Sudeste 0 -- -- 52
2019-08-02 14:00:00 19.4 6 Este 16 Este 0 -- -- 51
2019-08-02 13:00:00 19.5 4 Este 16 Sudeste 0 -- -- 54
2019-08-02 12:00:00 19.3 4 Este 17 Nordeste 0 -- -- 46
2019-08-02 11:00:00 18.2 4 Este 15 Este 0 -- -- 52
2019-08-02 10:00:00 18.3 4 Este 15 Este 0 -- -- 36
2019-08-02 09:00:00 17.3 3 Este 16 Este 0 -- -- 32
2019-08-02 08:00:00 16.8 6 Este 19 Nordeste 0 -- -- 28
2019-08-02 07:00:00 15.9 13 Nordeste 24 Nordeste 0 -- -- 27
2019-08-02 06:00:00 15.7 13 Nordeste 24 Nordeste 0 -- -- 27
2019-08-02 05:00:00 16.7 17 Nordeste 23 Nordeste 0 -- -- 20
2019-08-02 04:00:00 17.5 12 Nordeste 18 Nordeste 0 -- -- 13
2019-08-02 03:00:00 17.1 12 Nordeste 19 Este 0 -- -- 14
2019-08-02 02:00:00 17.2 11 Nordeste 20 Nordeste 0 -- -- 16
2019-08-02 01:00:00 17.1 15 Nordeste 27 Nordeste 0 -- -- 20
2019-08-02 00:00:00 16.7 9 Este 26 Nordeste 0 -- -- 17
2019-08-01 23:00:00 17 11 Este 27 Nordeste 0 -- -- 15
2019-08-01 22:00:00 16.8 18 Nordeste 27 Nordeste 0 -- -- 17
2019-08-01 21:00:00 16.1 12 Nordeste 26 Nordeste 0 -- -- 25
2019-08-01 20:00:00 17.7 10 Nordeste 21 Nordeste 0 -- -- 23
2019-08-01 19:00:00 20.2 5 Nordeste 19 Nordeste 0 -- -- 20
2019-08-01 18:00:00 20 3 Este 8 Este 0 -- -- 55
2019-08-01 17:00:00 20.3 4 Este 14 Este 0 -- -- 50
2019-08-01 16:00:00 19.7 4 Este 15 Este 0 -- -- 55
2019-08-01 15:00:00 20.9 5 Este 14 Sudeste 0 -- -- 52
2019-08-01 14:00:00 19.5 4 Este 13 Este 0 -- -- 55
2019-08-01 13:00:00 20 5 Este 13 Este 0 -- -- 55
2019-08-01 12:00:00 18 5 Este 15 Este 0 -- -- 62
2019-08-01 11:00:00 17.5 4 Nordeste 21 Este 0 -- -- 50
2019-08-01 10:00:00 16.3 12 Este 26 Este 0 -- -- 42
2019-08-01 09:00:00 17.4 17 Nordeste 24 Nordeste 0 -- -- 18
2019-08-01 08:00:00 16.7 13 Nordeste 30 Nordeste 0 -- -- 20
2019-08-01 07:00:00 15.5 18 Nordeste 28 Este 0 -- -- 22
2019-08-01 06:00:00 15.2 17 Este 30 Nordeste 0 -- -- 23
2019-08-01 05:00:00 15.2 12 Nordeste 35 Nordeste 0 -- -- 22
2019-08-01 04:00:00 15.4 21 Este 35 Nordeste 0 -- -- 22
2019-08-01 03:00:00 15.3 20 Este 41 Nordeste 0 -- -- 22
2019-08-01 02:00:00 15 15 Este 42 Nordeste 0 -- -- 16
2019-08-01 01:00:00 15.1 25 Nordeste 40 Este 0 -- -- 17
2019-08-01 00:00:00 15.1 19 Nordeste 45 Nordeste 0 -- -- 23
2019-07-31 23:00:00 15.5 20 Este 43 Nordeste 0 -- -- 19
2019-07-31 22:00:00 15.4 26 Nordeste 42 Nordeste 0 -- -- 18
2019-07-31 21:00:00 15.3 19 Nordeste 41 Nordeste 0 -- -- 13
2019-07-31 20:00:00 16 9 Este 30 Nordeste 0 -- -- 16
2019-07-31 19:00:00 15.9 5 Este 18 Este 0 -- -- 46
2019-07-31 18:00:00 17.4 4 Este 18 Este 0 -- -- 32
2019-07-31 17:00:00 17.4 6 Este 17 Nordeste 0 -- -- 54
2019-07-31 16:00:00 18.9 5 Este 17 Este 0 -- -- 46
2019-07-31 15:00:00 17.4 5 Este 20 Sudeste 0 -- -- 48
2019-07-31 14:00:00 16.6 6 Este 20 Este 0 -- -- 54
2019-07-31 13:00:00 16.6 8 Este 17 Este 0 -- -- 62
2019-07-31 12:00:00 14.2 5 Este 18 Este 0 -- -- 71
2019-07-31 11:00:00 13.8 5 Este 26 Nordeste 0 -- -- 71
2019-07-31 10:00:00 13.1 9 Este 25 Nordeste 0 -- -- 69
2019-07-31 09:00:00 13.5 13 Nordeste 32 Nordeste 0 -- -- 49
2019-07-31 08:00:00 14.4 19 Nordeste 35 Nordeste 0 -- -- 27
2019-07-31 07:00:00 13.5 23 Nordeste 36 Nordeste 0 -- -- 32
2019-07-31 06:00:00 14.2 11 Este 40 Nordeste 0 -- -- 28
2019-07-31 05:00:00 9.5 13 Este 42 Nordeste 0 -- -- 79
2019-07-31 04:00:00 9.6 13 Nordeste 39 Nordeste 0 -- -- 88
2019-07-31 03:00:00 9.8 12 Nordeste 42 Nordeste 0 -- -- 83
2019-07-31 02:00:00 10.3 13 Este 44 Este 0 -- -- 77
2019-07-31 01:00:00 10.4 18 Este 48 Este 0 -- -- 70
2019-07-31 00:00:00 9.4 12 Este 42 Nordeste 0 -- -- 89
2019-07-30 23:00:00 9.4 15 Este 47 Nordeste 0 -- -- 98
2019-07-30 22:00:00 9.4 15 Este 50 Nordeste 0 -- -- 98
2019-07-30 21:00:00 9.9 13 Este 47 Nordeste 0 -- -- 98
2019-07-30 20:00:00 10.1 14 Este 45 Nordeste 0 -- -- 97
2019-07-30 19:00:00 11.4 9 Este 34 Nordeste 0 -- -- 96
2019-07-30 18:00:00 13.3 13 Nordeste 29 Nordeste 0 -- -- 85
2019-07-30 17:00:00 17.6 7 Nordeste 24 Norte 0 -- -- 64
2019-07-30 16:00:00 13.9 8 Nordeste 25 Nordeste 0 -- -- 96
2019-07-30 15:00:00 13.4 8 Este 26 Nordeste 0 -- -- 98
2019-07-30 14:00:00 12.9 8 Nordeste 28 Este 0 -- -- 98
2019-07-30 13:00:00 12.4 10 Este 28 Este 0.2 -- -- 98
2019-07-30 12:00:00 12.8 9 Este 38 Este 0 -- -- 99
2019-07-30 11:00:00 12.2 12 Este 54 Sudeste 0 -- -- 99
2019-07-30 10:00:00 11.5 22 Este 54 Este 0.2 -- -- 99
2019-07-30 09:00:00 11 21 Este 57 Sudeste 0.6 -- -- 99
2019-07-30 08:00:00 11.3 23 Este 64 Este 0.4 -- -- 98
2019-07-30 07:00:00 11.7 19 Sudeste 57 Este 0.4 -- -- 99
2019-07-30 06:00:00 11.8 22 Este 63 Este 0.6 -- -- 99
2019-07-30 05:00:00 11.1 23 Este 60 Nordeste 0.8 -- -- 98
2019-07-30 04:00:00 11.1 19 Este 51 Este 0.4 -- -- 98
2019-07-30 03:00:00 11.1 21 Este 59 Nordeste 0.8 -- -- 98
2019-07-30 02:00:00 11.6 30 Nordeste 58 Nordeste 0.8 -- -- 98
2019-07-30 01:00:00 11.7 26 Nordeste 52 Nordeste 1 -- -- 97
2019-07-30 00:00:00 12 32 Nordeste 61 Nordeste 0.8 -- -- 97
2019-07-29 23:00:00 11.3 36 Nordeste 56 Nordeste 0 -- -- 96
2019-07-29 22:00:00 10.7 18 Este 52 Nordeste 0 -- -- 92
2019-07-29 21:00:00 12.5 15 Este 43 Nordeste 0 -- -- 60
2019-07-29 20:00:00 11.4 7 Este 33 Nordeste 0 -- -- 87
2019-07-29 19:00:00 13.8 11 Este 35 Nordeste 0 -- -- 66
2019-07-29 18:00:00 17 9 Este 30 Nordeste 0 -- -- 44
2019-07-29 17:00:00 17.9 6 Este 27 Este 0 -- -- 49
2019-07-29 16:00:00 18.8 7 Este 35 Este 0 -- -- 39
2019-07-29 15:00:00 18.9 8 Este 31 Este 0 -- -- 37
2019-07-29 14:00:00 19.2 9 Este 42 Nordeste 0 -- -- 39
2019-07-29 13:00:00 18.8 10 Este 35 Nordeste 0 -- -- 44
2019-07-29 12:00:00 18.3 11 Este 36 Nordeste 0 -- -- 45
2019-07-29 11:00:00 18.4 11 Este 45 Nordeste 0 -- -- 36
2019-07-29 10:00:00 19.2 24 Nordeste 44 Nordeste 0 -- -- 15
2019-07-29 09:00:00 18.7 26 Nordeste 38 Este 0 -- -- 13
2019-07-29 08:00:00 18.6 11 Este 32 Este 0 -- -- 15
2019-07-29 07:00:00 17.7 8 Este 27 Nordeste 0 -- -- 22
2019-07-29 06:00:00 18.1 18 Nordeste 31 Nordeste 0 -- -- 32
2019-07-29 05:00:00 18.2 18 Nordeste 30 Nordeste 0 -- -- 37
2019-07-29 04:00:00 17.4 7 Nordeste 20 Nordeste 0 -- -- 48
2019-07-29 03:00:00 17.6 7 Este 22 Este 0 -- -- 49
2019-07-29 02:00:00 18.1 8 Este 29 Este 0 -- -- 45
2019-07-29 01:00:00 18.2 11 Este 36 Este 0 -- -- 43
2019-07-29 00:00:00 18.4 11 Este 32 Este 0 -- -- 39
2019-07-28 23:00:00 18.4 14 Este 35 Sudeste 0 -- -- 32
2019-07-28 22:00:00 18.8 14 Este 29 Sudeste 0 -- -- 24
2019-07-28 21:00:00 18.8 9 Nordeste 35 Nordeste 0 -- -- 26
2019-07-28 20:00:00 20 18 Nordeste 32 Nordeste 0 -- -- 29
2019-07-28 19:00:00 20.8 17 Nordeste 36 Nordeste 0 -- -- 42
2019-07-28 18:00:00 23.1 9 Este 22 Sudeste 0 -- -- 41
2019-07-28 17:00:00 23.7 9 Este 28 Sudeste 0 -- -- 41
2019-07-28 16:00:00 24.1 6 Este 19 Nordeste 0 -- -- 42
2019-07-28 15:00:00 24 9 Este 26 Nordeste 0 -- -- 48
2019-07-28 14:00:00 22.5 8 Este 29 Nordeste 0 -- -- 49
2019-07-28 13:00:00 21.8 10 Este 31 Nordeste 0 -- -- 50
2019-07-28 12:00:00 20.9 12 Este 37 Nordeste 0 -- -- 60
2019-07-28 11:00:00 20.1 6 Este 35 Nordeste 0 -- -- 64
2019-07-28 10:00:00 19.9 8 Este 35 Nordeste 0 -- -- 59
2019-07-28 09:00:00 18.2 19 Nordeste 37 Nordeste 0 -- -- 58
2019-07-28 08:00:00 17.4 15 Este 38 Nordeste 0 -- -- 52
2019-07-28 07:00:00 17.2 17 Este 37 Nordeste 0 -- -- 54
2019-07-28 06:00:00 16.5 21 Nordeste 36 Nordeste 0 -- -- 62
2019-07-28 05:00:00 16 13 Este 39 Nordeste 0 -- -- 64
2019-07-28 04:00:00 16.4 25 Nordeste 37 Nordeste 0 -- -- 63
2019-07-28 03:00:00 16.1 19 Nordeste 32 Nordeste 0 -- -- 60
2019-07-28 02:00:00 16.7 19 Nordeste 29 Nordeste 0 -- -- 10
2019-07-28 01:00:00 18.3 23 Nordeste 30 Nordeste 0 -- -- 4
2019-07-28 00:00:00 18.9 18 Nordeste 28 Nordeste 0 -- -- 3
2019-07-27 23:00:00 19.7 15 Nordeste 22 Nordeste 0 -- -- 3
2019-07-27 22:00:00 19.8 13 Nordeste 19 Nordeste 0 -- -- 7
2019-07-26 11:00:00 -- -- -- -- -- -- -- -- --
2019-07-26 10:00:00 -- -- -- -- -- -- -- -- --
2019-07-26 09:00:00 -- -- -- -- -- -- -- -- --
2019-07-26 08:00:00 20.6 13 Nordeste 23 Nordeste 0 -- -- 10
2019-07-26 07:00:00 19.5 10 Este 18 Nordeste 0 -- -- 11
2019-07-26 06:00:00 19.8 10 Este 18 Nordeste 0 -- -- 9
2019-07-26 05:00:00 20.1 6 Este 15 Nordeste 0 -- -- 9
2019-07-26 04:00:00 19.6 14 Nordeste 23 Nordeste 0 -- -- 10
2019-07-26 03:00:00 17.6 17 Este 23 Nordeste 0 -- -- 16
2019-07-26 02:00:00 17.6 9 Este 26 Nordeste 0 -- -- 18
2019-07-26 01:00:00 17.1 18 Nordeste 31 Nordeste 0 -- -- 18
2019-07-26 00:00:00 18.2 8 Este 21 Nordeste 0 -- -- 14